Location: Mabank
(32.3664°N, 96.1006°W)
Time: 04:07:57
(UTC-05:00)

Hubble Space Telescope - Visible Passes

Search period start: 20 July 2018 00:00
Search period end: 30 July 2018 00:00
Orbit: 537 x 541 km, 28.5° (Epoch: 19 July)

Date Brightness Start Highest point End Pass type
(mag) Time Alt. Az. Time Alt. Az. Time Alt. Az.
20 Jul 2.2 04:12:20 28° ESE 04:12:20 28° ESE 04:14:32 10° ESE visible
20 Jul 1.3 05:47:41 10° W 05:51:32 40° S 05:55:23 10° ESE visible
21 Jul 2.8 04:02:44 20° ESE 04:02:44 20° ESE 04:04:10 10° ESE visible
21 Jul 1.5 05:38:06 14° WSW 05:41:07 35° SSW 05:44:55 10° SE visible
22 Jul 3.3 03:53:16 13° ESE 03:53:16 13° ESE 03:53:47 10° ESE visible
22 Jul 1.6 05:28:40 20° WSW 05:30:43 31° SSW 05:34:23 10° SE visible
23 Jul 1.8 05:19:23 24° SW 05:20:18 27° SSW 05:23:48 10° SE visible
24 Jul 2.1 05:10:18 22° S 05:10:18 22° S 05:13:07 10° SSE visible
25 Jul 2.9 05:01:25 14° SSE 05:01:25 14° SSE 05:02:21 10° SSE visible
26 Jul 3.0 21:52:39 10° SSW 21:53:11 12° S 21:53:11 12° S visible
27 Jul 2.3 21:41:45 10° SSW 21:44:15 19° S 21:44:15 19° S visible
28 Jul 2.0 21:30:59 10° SW 21:34:18 23° SSE 21:35:06 22° SE visible
29 Jul 1.8 21:20:20 10° SW 21:23:52 27° SSE 21:25:46 19° ESE visible
29 Jul 3.4 23:00:46 10° WSW 23:01:08 12° WSW 23:01:08 12° WSW visible
